Vorticity
nan nan nan nan nan nan nan nan nan nan nan nan nan nan nan nan nan nan nan nan nan nan nan nan nan nan nan nan nan nan nan nan nan nan nan nan nan nan nan nan nan nan nan nan nan nan nan nan nan nan nan nan nan nan nan nan nan nan nan nan nan nan nan nan nan nan nan nan nan
nan 6 7 6 5 4 7 10 10 9 8 9 10 10 9 8 9 8 9 8 8 9 9 9 10 9 9 9 9 8 7 7 7 8 9 9 9 9 8 9 9 9 9 9 8 8 9 9 8 7 7 9 9 9 9 9 9 9 9 7 8 9 10 11 12 12 12 12 nan
nan 6 7 6 5 5 6 8 9 9 8 8 10 11 9 8 9 9 9 9 9 9 8 9 11 11 10 8 8 8 8 8 8 8 8 9 9 9 8 9 9 9 9 9 8 7 7 7 7 7 7 8 8 8 8 9 9 10 11 11 9 9 9 10 12 12 12 12 nan
nan 6 6 8 7 4 3 6 9 8 7 7 9 10 9 8 8 10 10 10 9 8 8 8 9 11 11 10 8 8 8 8 7 7 7 8 9 9 9 9 9 9 9 10 8 7 7 7 7 8 8 8 8 8 8 8 9 9 11 12 10 9 8 9 10 10 10 9 nan
nan 6 6 9 9 4 3 7 9 7 6 8 9 8 7 7 8 9 9 9 9 9 9 8 7 8 10 11 9 8 8 9 8 7 8 9 9 10 10 9 9 8 9 9 9 8 8 8 7 8 9 9 9 9 8 8 7 7 7 8 9 9 9 9 9 9 8 7 nan
nan 6 6 8 9 5 4 9 11 8 7 9 9 6 5 6 8 8 8 7 8 10 11 8 6 7 9 10 9 8 8 9 10 10 9 9 9 9 9 9 9 8 8 9 10 10 9 8 7 8 8 9 9 10 10 10 8 7 6 6 7 8 9 8 9 9 7 5 nan
nan 8 7 8 8 6 4 6 9 9 8 10 10 7 4 5 7 8 7 6 8 10 11 10 9 9 10 9 9 8 8 8 9 10 9 8 8 9 9 9 9 8 8 8 9 9 9 8 6 7 8 8 9 11 12 10 7 6 5 4 6 8 9 8 8 8 7 6 nan
nan 11 9 9 8 8 7 6 6 6 6 8 10 9 7 6 7 6 5 5 7 9 9 11 12 10 9 8 8 8 8 8 8 8 8 9 9 9 9 10 9 9 9 10 9 9 8 7 7 7 8 9 9 10 10 9 6 5 4 5 6 7 8 8 8 7 7 8 nan
nan 12 11 10 9 9 9 8 6 6 5 6 9 10 9 7 7 6 5 6 9 8 8 10 12 11 9 7 7 7 8 8 8 8 8 9 9 8 8 10 10 10 10 11 11 10 8 6 6 7 7 8 7 7 7 8 6 5 5 8 8 6 5 6 5 5 6 8 nan
nan 10 9 9 10 10 9 9 8 8 7 7 8 9 10 8 5 5 5 8 10 8 8 9 11 10 9 7 7 7 8 9 10 9 9 9 9 9 8 8 9 9 8 9 12 11 9 7 6 6 6 7 7 6 7 8 7 7 6 8 6 5 4 4 4 5 7 8 nan
nan 8 8 9 11 10 9 8 8 8 8 8 9 9 11 9 7 7 6 8 10 9 8 9 10 8 7 8 8 8 8 8 9 10 9 9 9 9 8 8 8 7 7 6 9 10 9 7 7 6 5 5 8 9 9 9 9 8 6 4 4 5 5 5 6 8 9 9 nan
nan 8 9 10 11 11 9 6 7 9 9 9 8 8 9 10 10 9 8 8 7 7 8 10 10 8 6 7 9 9 9 9 9 9 9 10 10 9 9 8 8 8 7 6 7 8 8 7 7 6 6 5 7 8 9 9 8 7 6 4 5 6 6 6 7 7 7 8 nan
nan 8 9 11 11 10 8 5 6 9 10 9 8 8 8 11 11 10 9 7 5 5 8 10 10 8 7 8 9 9 10 10 9 9 8 9 10 10 9 9 9 9 9 8 8 8 7 7 7 7 6 6 5 6 7 8 7 7 7 7 7 7 7 8 8 7 6 6 nan
nan 9 9 11 10 8 7 6 5 9 11 10 8 8 9 11 12 10 8 8 7 6 8 9 9 9 9 9 8 9 9 9 9 9 8 8 8 9 8 8 9 8 8 9 9 9 7 7 7 8 7 7 5 5 6 7 7 7 7 8 7 7 7 8 8 7 7 7 nan
nan 9 9 10 8 6 7 6 6 9 12 10 9 8 8 11 12 10 8 8 8 8 8 8 9 10 11 9 9 9 8 9 9 8 8 7 8 8 7 7 8 8 7 7 8 9 9 8 8 8 8 8 7 7 7 7 7 7 7 8 8 8 8 8 8 8 8 7 nan
nan 8 9 9 7 5 6 4 5 10 12 11 10 9 8 9 11 11 9 7 7 8 9 7 7 9 11 11 10 9 9 9 9 8 8 8 8 8 7 7 7 8 8 7 7 8 9 9 9 9 9 8 8 8 8 8 8 8 8 7 8 8 8 7 7 8 8 8 nan
nan 8 8 8 7 5 4 3 4 8 11 12 10 9 8 7 10 12 10 7 6 8 9 7 6 8 10 11 11 10 9 9 9 9 8 8 8 8 8 8 8 9 9 9 7 7 8 8 8 9 9 9 9 9 9 9 9 8 8 8 8 9 9 8 8 8 8 8 nan
nan 8 8 8 8 6 5 3 3 7 10 11 9 9 8 8 9 10 11 9 7 8 8 7 7 8 8 9 9 9 9 9 8 8 8 9 9 9 8 8 9 9 9 9 8 8 7 7 7 8 9 9 9 9 9 9 9 9 9 9 9 9 10 10 9 9 9 8 nan
nan 8 8 8 8 7 7 5 4 6 8 9 9 9 9 9 8 7 9 10 9 9 8 7 7 8 9 8 7 8 8 9 9 8 8 9 9 9 9 8 9 9 9 9 9 9 8 8 8 8 8 8 8 8 8 8 8 8 9 10 11 10 10 10 10 9 9 8 nan
nan 8 8 8 8 8 9 7 7 7 7 9 10 9 9 9 8 7 7 8 9 9 9 8 7 7 8 8 7 7 7 9 11 10 9 9 9 9 9 9 9 9 10 10 9 9 9 9 9 9 9 8 7 7 7 8 8 8 9 11 12 11 10 10 10 9 9 8 nan
nan 9 9 9 9 9 9 9 9 9 8 9 10 9 8 8 8 8 8 8 9 9 9 8 7 7 7 8 7 7 7 9 11 10 10 10 10 9 9 9 9 9 10 10 10 10 9 9 9 9 9 8 8 7 7 8 9 9 9 9 9 10 10 9 9 9 9 9 nan
nan 10 10 11 10 9 9 10 10 10 9 9 9 9 9 8 8 8 9 9 9 9 9 9 9 8 8 8 8 7 7 8 10 10 10 10 10 10 10 10 10 9 9 9 10 10 10 10 10 9 9 9 9 8 8 7 8 9 9 8 7 8 9 10 10 10 11 11 nan
nan 10 11 12 13 12 10 9 10 10 9 8 9 9 9 8 8 9 9 9 9 8 8 9 11 11 10 9 9 8 7 7 7 8 8 8 9 9 9 10 11 10 10 10 10 9 9 11 12 12 11 10 11 11 10 9 9 9 9 9 9 9 10 11 11 11 11 11 nan
nan 9 8 12 15 13 10 10 10 9 9 8 9 9 9 8 8 9 9 9 9 8 7 7 10 12 11 11 10 9 8 7 6 6 7 8 8 9 9 10 11 12 11 10 5 0 -2 2 8 12 13 13 12 13 13 12 11 10 10 10 10 10 11 11 11 11 11 11 nan
nan 10 8 11 14 11 10 10 9 9 8 9 9 9 9 9 8 8 8 8 8 8 7 7 8 9 10 10 10 10 9 9 8 7 7 8 8 9 9 10 11 12 12 8 1 -4 -6 -6 -2 3 8 12 12 13 14 15 13 11 9 9 8 9 10 11 12 13 14 14 nan
nan 11 10 11 11 11 10 9 9 8 8 9 9 9 9 9 8 9 8 8 8 9 9 8 8 7 6 8 9 9 8 9 10 9 8 8 8 8 8 9 10 11 10 5 2 1 2 0 -2 -1 2 8 10 12 13 15 14 11 9 8 9 9 9 11 13 14 15 16 nan
nan 11 10 11 11 11 9 9 9 9 9 9 9 9 8 8 8 9 9 8 8 8 9 9 9 10 8 9 10 8 6 7 10 11 10 9 8 8 7 7 9 8 6 2 2 3 6 7 6 4 4 5 9 11 11 10 12 13 13 13 12 12 11 10 11 12 12 12 nan
nan 11 11 11 11 10 9 9 9 9 9 9 9 8 9 9 8 8 8 8 8 7 7 9 10 10 10 10 11 10 8 7 8 10 10 10 9 8 7 7 7 5 1 -1 1 4 6 7 8 8 7 6 11 13 13 12 13 14 15 15 14 12 11 10 10 9 9 10 nan
nan 10 11 10 9 9 9 9 9 9 9 9 9 9 9 9 8 7 7 8 7 5 4 7 9 8 9 9 10 10 10 9 9 9 10 10 9 9 8 7 7 6 4 2 3 5 6 7 8 9 9 9 10 11 14 15 13 12 12 12 10 9 8 7 6 7 9 12 nan
nan 11 11 10 9 9 9 9 9 9 8 9 11 10 9 8 7 7 7 8 7 5 3 6 8 8 7 7 8 10 10 10 10 10 10 9 7 7 8 8 8 8 7 5 4 5 7 8 9 9 9 10 12 13 13 12 10 9 9 9 6 5 5 6 7 8 11 12 nan
nan 11 11 10 9 9 9 9 9 9 8 10 11 9 8 7 7 7 8 8 8 7 5 6 7 7 6 6 7 9 9 8 9 9 9 9 8 8 8 9 9 7 6 5 4 6 7 8 9 9 9 12 16 15 13 11 10 10 9 6 5 5 7 9 12 12 12 11 nan
nan 11 10 10 9 8 9 10 10 10 9 9 9 8 7 7 7 8 8 9 10 9 8 7 7 6 6 6 6 7 8 7 7 6 6 7 8 9 9 10 10 8 6 5 5 6 7 8 8 9 9 12 17 17 15 14 14 12 9 7 7 7 9 10 12 12 12 12 nan
nan 10 10 9 8 8 9 10 10 10 9 8 8 7 7 7 7 8 9 9 10 11 10 8 7 7 8 7 8 8 8 8 8 8 8 8 8 8 8 10 12 10 6 5 5 6 7 8 9 9 9 14 20 21 19 15 13 10 8 8 8 9 10 12 13 13 12 12 nan
nan 10 9 8 8 8 9 9 9 9 9 8 7 7 7 7 8 8 8 7 8 9 11 11 10 10 10 10 10 10 9 8 10 11 11 11 10 9 8 8 9 8 4 3 4 6 7 8 9 9 10 18 25 22 17 12 9 7 7 7 7 10 13 16 15 13 12 11 nan
nan 9 8 8 8 8 9 9 9 9 8 7 7 7 7 8 8 8 8 7 6 6 8 9 10 10 10 10 11 10 9 8 9 9 10 9 10 9 8 7 5 5 3 2 3 6 8 9 9 10 13 23 25 19 14 11 9 8 8 7 8 11 15 17 15 12 11 10 nan
nan 9 8 7 8 8 9 9 8 8 8 7 7 7 7 7 8 9 11 10 7 6 6 7 8 8 7 7 9 11 10 10 8 8 8 7 7 8 9 8 8 8 6 4 4 6 8 9 9 11 17 24 22 16 12 11 11 11 9 9 11 14 18 17 13 10 9 9 nan
nan 9 8 7 8 8 8 8 8 8 7 7 7 7 8 7 7 9 12 11 8 8 7 7 7 8 8 7 7 10 11 10 9 8 8 8 7 7 8 9 10 11 10 6 5 6 7 9 9 12 18 22 17 13 11 11 11 10 9 11 14 18 19 16 11 10 8 7 nan
nan 9 9 8 8 8 8 8 8 8 7 6 7 7 8 8 8 11 12 10 8 9 8 8 8 9 9 9 8 9 10 10 10 8 7 9 9 7 6 7 9 11 11 7 4 5 6 8 10 13 16 17 15 13 11 10 9 7 8 12 16 19 18 13 10 9 9 4 nan
nan 10 9 8 8 8 8 8 8 8 7 7 7 8 8 7 8 11 13 10 8 9 9 9 10 9 10 8 7 9 10 11 11 9 8 8 8 6 3 4 8 10 9 5 3 3 5 8 11 12 15 17 16 13 11 9 8 8 9 12 16 18 16 11 9 9 9 4 nan
nan 10 9 8 9 9 9 8 7 7 7 8 8 8 8 7 8 10 10 10 10 9 10 11 12 10 11 9 7 8 9 10 11 11 10 8 7 6 5 5 8 10 9 7 4 4 6 9 11 13 16 18 16 13 11 9 9 9 9 12 16 16 13 10 9 9 9 8 nan
nan nan nan nan nan nan nan nan nan nan nan nan nan nan nan nan nan nan nan nan nan nan nan nan nan nan nan nan nan nan nan nan nan nan nan nan nan nan nan nan nan nan nan nan nan nan nan nan nan nan nan nan nan nan nan nan nan nan nan nan nan nan nan nan nan nan nan nan nan
CAPE
nan nan nan nan nan nan nan nan nan nan nan nan nan nan nan nan nan nan nan nan nan nan nan nan nan nan nan nan nan nan nan nan nan nan nan nan nan nan nan nan nan nan nan nan nan nan nan nan nan nan nan nan nan nan nan nan nan nan nan nan nan nan nan nan nan nan nan nan nan
nan nan nan nan nan nan nan nan nan nan nan nan nan nan nan nan nan nan nan nan nan nan nan nan nan nan nan nan nan nan nan nan nan nan nan nan nan nan nan nan nan nan nan nan nan nan nan nan nan nan nan nan nan nan nan nan nan nan nan nan nan nan nan nan nan nan nan nan nan
nan nan nan nan nan nan nan nan nan nan nan nan nan nan nan nan nan nan nan nan nan nan nan nan nan nan nan nan nan nan nan nan nan nan nan nan nan nan nan nan nan nan nan nan nan nan nan nan nan nan nan nan nan nan nan nan nan nan nan nan nan nan nan nan nan nan nan nan nan
nan nan nan nan nan nan nan nan nan nan nan nan nan nan nan nan nan nan nan nan nan nan nan nan nan nan nan nan nan nan nan nan nan nan nan nan nan nan nan nan nan nan nan nan nan nan nan nan nan nan nan nan nan nan nan nan nan nan nan nan nan nan nan nan nan nan nan nan nan
nan nan nan nan nan nan nan nan nan nan nan nan nan nan nan nan nan nan nan nan nan nan nan nan nan nan nan nan nan nan nan nan nan nan nan nan nan nan nan nan nan nan nan nan nan nan nan nan nan nan nan nan nan nan nan nan nan nan nan nan nan nan nan nan nan nan nan nan nan
nan nan nan nan nan nan nan nan nan nan nan nan nan nan nan nan nan nan nan nan nan nan nan nan nan nan nan nan nan nan nan nan nan nan nan nan nan nan nan nan nan nan nan nan nan nan nan nan nan nan nan nan nan nan nan nan nan nan nan nan nan nan nan nan nan nan nan nan nan
nan nan nan nan nan nan nan nan nan nan nan nan nan nan nan nan nan nan nan nan nan nan nan nan nan nan nan nan nan nan nan nan nan nan nan nan nan nan nan nan nan nan nan nan nan nan nan nan nan nan nan nan nan nan nan nan nan nan nan nan nan nan nan nan nan nan nan nan nan
nan nan nan nan nan nan nan nan nan nan nan nan nan nan nan nan nan nan nan nan nan nan nan nan nan nan nan nan nan nan nan nan nan nan nan nan nan nan nan nan nan nan nan nan nan nan nan nan nan nan nan nan nan nan nan nan nan nan nan nan nan nan nan nan nan nan nan nan nan
nan nan nan nan nan nan nan nan nan nan nan nan nan nan nan nan nan nan nan nan nan nan nan nan nan nan nan nan nan nan nan nan nan nan nan nan nan nan nan nan nan nan nan nan nan nan nan nan nan nan nan nan nan nan nan nan nan nan nan nan nan nan nan nan nan nan nan nan nan
nan nan nan nan nan nan nan nan nan nan nan nan nan nan nan nan nan nan nan nan nan nan nan nan nan nan nan nan nan nan nan nan nan nan nan nan nan nan nan nan nan nan nan nan nan nan nan nan nan nan nan nan nan nan nan nan nan nan nan nan nan nan nan nan nan nan nan nan nan
nan nan nan nan nan nan nan nan nan nan nan nan nan nan nan nan nan nan nan nan nan nan nan nan nan nan nan nan nan nan nan nan nan nan nan nan nan nan nan nan nan nan nan nan nan nan nan nan nan nan nan nan nan nan nan nan nan nan nan nan nan nan nan nan nan nan nan nan nan
nan nan nan nan nan nan nan nan nan nan nan nan nan nan nan nan nan nan nan nan nan nan nan nan nan nan nan nan nan nan nan nan nan nan nan nan nan nan nan nan nan nan nan nan nan nan nan nan nan nan nan nan nan nan nan nan nan nan nan nan nan nan nan nan nan nan nan nan nan
nan nan nan nan nan nan nan nan nan nan nan nan nan nan nan nan nan nan nan nan nan nan nan nan nan nan nan nan nan nan nan nan nan nan nan nan nan nan nan nan nan nan nan nan nan nan nan nan nan nan nan nan nan nan nan nan nan nan nan nan nan nan nan nan nan nan nan nan nan
nan nan nan nan nan nan nan nan nan nan nan nan nan nan nan nan nan nan nan nan nan nan nan nan nan nan nan nan nan nan nan nan nan nan nan nan nan nan nan nan nan nan nan nan nan nan nan nan nan nan nan nan nan nan nan nan nan nan nan nan nan nan nan nan nan nan nan nan nan
nan nan nan nan nan nan nan nan nan nan nan nan nan nan nan nan nan nan nan nan nan nan nan nan nan nan nan nan nan nan nan nan nan nan nan nan nan nan nan nan nan nan nan nan nan nan nan nan nan nan nan nan nan nan nan nan nan nan nan nan nan nan nan nan nan nan nan nan nan
nan nan nan nan nan nan nan nan nan nan nan nan nan nan nan nan nan nan nan nan nan nan nan nan nan nan nan nan nan nan nan nan nan nan nan nan nan nan nan nan nan nan nan nan nan nan nan nan nan nan nan nan nan nan nan nan nan nan nan nan nan nan nan nan nan nan nan nan nan
nan nan nan nan nan nan nan nan nan nan nan nan nan nan nan nan nan nan nan nan nan nan nan nan nan nan nan nan nan nan nan nan nan nan nan nan nan nan nan nan nan nan nan nan nan nan nan nan nan nan nan nan nan nan nan nan nan nan nan nan nan nan nan nan nan nan nan nan nan
nan nan nan nan nan nan nan nan nan nan nan nan nan nan nan nan nan nan nan nan nan nan nan nan nan nan nan nan nan nan nan nan nan nan nan nan nan nan nan nan nan nan nan nan nan nan nan nan nan nan nan nan nan nan nan nan nan nan nan nan nan nan nan nan nan nan nan nan nan
nan nan nan nan nan nan nan nan nan nan nan nan nan nan nan nan nan nan nan nan nan nan nan nan nan nan nan nan nan nan nan nan nan nan nan nan nan nan nan nan nan nan nan nan nan nan nan nan nan nan nan nan nan nan nan nan nan nan nan nan nan nan nan nan nan nan nan nan nan
nan nan nan nan nan nan nan nan nan nan nan nan nan nan nan nan nan nan nan nan nan nan nan nan nan nan nan nan nan nan nan nan nan nan nan nan nan nan nan nan nan nan nan nan nan nan nan nan nan nan nan nan nan nan nan nan nan nan nan nan nan nan nan nan nan nan nan nan nan
nan nan nan nan nan nan nan nan nan nan nan nan nan nan nan nan nan nan nan nan nan nan nan nan nan nan nan nan nan nan nan nan nan nan nan nan nan nan nan nan nan nan nan nan nan nan nan nan nan nan nan nan nan nan nan nan nan nan nan nan nan nan nan nan nan nan nan nan nan
nan nan nan nan nan nan nan nan nan nan nan nan nan nan nan nan nan nan nan nan nan nan nan nan nan nan nan nan nan nan nan nan nan nan nan nan nan nan nan nan nan nan nan nan nan nan nan nan nan nan nan nan nan nan nan nan nan nan nan nan nan nan nan nan nan nan nan nan nan
nan nan nan nan nan nan nan nan nan nan nan nan nan nan nan nan nan nan nan nan nan nan nan nan nan nan nan nan nan nan nan nan nan nan nan nan nan nan nan nan nan nan nan nan nan nan nan nan nan nan nan nan nan nan nan nan nan nan nan nan nan nan nan nan nan nan nan nan nan
nan nan nan nan nan nan nan nan nan nan nan nan nan nan nan nan nan nan nan nan nan nan nan nan nan nan nan nan nan nan nan nan nan nan nan nan nan nan nan nan nan nan nan nan nan nan nan nan nan nan nan nan nan nan nan nan nan nan nan nan nan nan nan nan nan nan nan nan nan
nan nan nan nan nan nan nan nan nan nan nan nan nan nan nan nan nan nan nan nan nan nan nan nan nan nan nan nan nan nan nan nan nan nan nan nan nan nan nan nan nan nan nan nan 5 5 16 15 1 1 nan nan nan nan nan nan nan nan nan nan nan nan nan nan nan nan nan nan nan
nan nan nan nan nan nan nan nan nan nan nan nan nan nan nan nan nan nan nan nan nan nan nan nan nan nan nan nan nan nan nan nan nan nan nan nan nan nan nan nan nan nan nan nan 6 6 16 28 34 34 16 1 1 nan nan nan nan nan nan nan nan nan nan nan nan nan nan nan nan
nan nan nan nan nan nan nan nan nan nan nan nan nan nan nan nan nan nan nan nan nan nan nan nan nan nan nan nan nan nan nan nan nan nan nan nan nan nan nan nan nan nan nan nan 8 8 20 30 39 39 40 8 nan nan nan nan nan nan nan nan nan nan nan nan nan nan nan nan nan
nan nan nan nan nan nan nan nan nan nan nan nan nan nan nan nan nan nan nan nan nan nan nan nan nan nan nan nan nan nan nan nan nan nan nan nan nan nan nan nan nan nan nan 2 14 14 24 29 38 38 42 26 2 0 0 0 0 0 0 0 1 nan nan nan nan nan nan nan nan
nan nan nan nan nan nan nan nan nan nan nan nan nan nan nan nan nan nan nan nan nan nan nan nan nan nan nan nan nan nan nan nan nan nan nan nan nan nan nan nan nan nan nan 4 16 16 22 25 34 34 40 43 15 8 8 6 6 6 6 4 nan nan nan nan nan nan nan nan nan
nan nan nan nan nan nan nan nan nan nan nan nan nan nan nan nan nan nan nan nan nan nan nan nan nan nan nan nan nan nan nan nan nan nan nan nan nan nan nan nan nan nan nan 4 15 15 21 24 32 32 39 52 36 11 11 7 6 7 7 nan nan nan nan nan nan nan nan nan nan
nan nan nan nan nan nan nan nan nan nan nan nan nan nan nan nan nan nan nan nan nan nan nan nan nan nan nan nan nan nan nan nan nan nan nan nan nan nan nan nan nan nan nan 3 13 13 19 25 31 31 40 51 42 9 9 6 3 nan nan nan nan nan nan nan nan nan nan nan nan
nan nan nan nan nan nan nan nan nan nan nan nan nan nan nan nan nan nan nan nan nan nan nan nan nan nan nan nan nan nan nan nan nan nan nan nan nan nan nan nan nan nan nan 3 13 13 20 26 29 29 40 50 43 9 9 2 nan nan nan nan nan nan nan nan nan nan nan nan nan
nan nan nan nan nan nan nan nan nan nan nan nan nan nan nan nan nan nan nan nan nan nan nan nan nan nan nan nan nan nan nan nan nan nan nan nan nan nan nan nan nan nan nan 5 14 14 19 25 30 30 38 47 39 5 5 nan nan nan nan nan nan nan nan nan nan nan nan nan nan
nan nan nan nan nan nan nan nan nan nan nan nan nan nan nan nan nan nan nan nan nan nan nan nan nan nan nan nan nan nan nan nan nan nan nan nan nan nan nan nan nan nan nan 5 13 13 19 24 28 28 33 46 25 nan nan nan nan nan nan nan nan nan nan nan nan nan nan nan nan
nan nan nan nan nan nan nan nan nan nan nan nan nan nan nan nan nan nan nan nan nan nan nan nan nan nan nan nan nan nan nan nan nan nan nan nan nan nan nan nan nan nan nan 7 14 14 19 22 27 27 30 34 6 nan nan nan nan nan nan nan nan nan nan nan nan nan nan nan nan
nan nan nan nan nan nan nan nan nan nan nan nan nan nan nan nan nan nan nan nan nan nan nan nan nan nan nan nan nan nan nan nan nan nan nan nan nan nan nan nan nan nan nan 5 12 12 17 21 25 25 29 21 0 nan nan nan nan nan nan nan nan nan nan nan nan nan nan nan nan
nan nan nan nan nan nan nan nan nan nan nan nan nan nan nan nan nan nan nan nan nan nan nan nan nan nan nan nan nan nan nan nan nan nan nan nan nan nan nan nan nan nan nan 1 10 10 15 20 25 25 24 8 nan nan nan nan nan nan nan nan nan nan nan nan nan nan nan nan nan
nan nan nan nan nan nan nan nan nan nan nan nan nan nan nan nan nan nan nan nan nan nan nan nan nan nan nan nan nan nan nan nan nan nan nan nan nan nan nan nan nan nan nan nan 9 9 13 18 22 22 19 3 nan nan nan nan nan nan nan nan nan nan nan nan nan nan nan nan nan
nan nan nan nan nan nan nan nan nan nan nan nan nan nan nan nan nan nan nan nan nan nan nan nan nan nan nan nan nan nan nan nan nan nan nan nan nan nan nan nan nan nan nan nan 8 8 13 16 17 17 19 5 nan nan nan nan nan nan nan nan nan nan nan nan nan nan nan nan nan
nan nan nan nan nan nan nan nan nan nan nan nan nan nan nan nan nan nan nan nan nan nan nan nan nan nan nan nan nan nan nan nan nan nan nan nan nan nan nan nan nan nan nan 0 9 9 11 14 15 15 19 11 nan nan nan nan nan nan nan nan nan nan nan nan nan nan nan nan nan
nan nan nan nan nan nan nan nan nan nan nan nan nan nan nan nan nan nan nan nan nan nan nan nan nan nan nan nan nan nan nan nan nan nan nan nan nan 0 0 nan nan nan nan nan 5 5 10 13 14 14 20 9 nan nan nan nan nan nan nan nan nan nan nan nan nan nan nan nan nan